Weather in Pointe-a-Pitre

Guadeloupe     16°14′27″N   61°32′07″W
temp.,
°C
wind,
m/s
gust,
m/s
humid.,
%
clouds,
%
prec.,
mm/h
press.,
hPa
HPBL,
m
9 december, thu
thu923:00+24e48848 0.7 1016386
02:00+23e37833 0.7 1015281
05:00+23e358521 0.9 1014175
08:00+25e358017 2.2 1016611
11:00+28e56620 0.4 10171360
14:00+28e55590 0.4 10141355
17:00+26ene46715 0.0 1014475
20:00+24ene36848 0.1 1015300
10 december, fri
fri1023:00+24ene488518 0.7 1015378
02:00+23e37852 1.6 1013317
05:00+23ene36840 1.1 1013299
08:00+25ene57802 1.8 1015663
11:00+27ene67746 1.9 10151067
14:00+27ene687510 4.6 10121035
17:00+25ene69803 2.2 1012560
20:00+24ene59843 3.1 1013450
11 december, sat
sat1123:00+24ene59852 1.4 1013447
02:00+23ene48875 2.9 1012359
05:00+23ene368711 2.1 1012279
08:00+25ene58810 3.0 1014675
11:00+27ene68743 2.3 10141112
14:00+27ene67755 5.1 10111075
17:00+25ene59804 2.4 1011510
20:00+24ene59875 3.8 1013435
12 december, sun
sun1223:00+24ene5987100 1.8 1012429
02:00+23e498847 3.4 1011411
05:00+23e498979 1.9 1012352
08:00+25e588345 4.0 1014689
11:00+27e687847 1.8 10141004
14:00+27e577888 3.9 1012998
17:00+25e578421 1.6 1012488
20:00+24e488924 3.1 1014376
13 december, mon
mon1323:00+24e498914 1.9 1014398
02:00+23e489026 4.0 1013346
05:00+23e489013 2.1 1013316
08:00+25e47856 5.1 1015642
11:00+27e577843 2.1 10151011
14:00+27e568050 4.6 1013966
17:00+25e478516 2.1 1013456
20:00+24e499017 4.4 1015408